[[{"header":{"parameterUnit":"m.s-1","parameterCategory":1,"la1":30.2991,"la2":30.254,"lo1":-89.0895,"lo2":-89.0444,"dy":0.0017,"dx":0.0017,"nx":28,"ny":28,"refTime":"2025-07-22T09:00:00:Z","depth":0,"parameterNumber":2,"parameterNumberName":"U-component_of_WINDS"},"data":[0,0,0,0,0,0,0,0,0,0,0,0,0,0,0,0,0,0,0,0,0,0,0,0,0,0,0,0,0,0,0,0,0,0,0,0,0,0,0,0,0,0,0,0,0,0,0,0,0,0,0,0,0,0,0,0,0,0,1.7072,1.7072,0,1.7036,1.7035,1.7035,1.6971,1.697,1.6969,1.6968,1.6931,1.6931,1.6931,0,0,0,0,0,0,0,0,0,0,0,0,0,1.7087,1.7087,1.7072,1.7071,1.7071,1.7036,1.7035,1.7035,1.6972,1.697,1.6969,1.6967,1.693,1.6931,1.6931,0,0,0,0,0,0,0,0,0,0,0,0,0,1.7069,1.7087,1.7072,1.7035,1.7032,1.7036,1.7035,1.7035,1.6972,1.697,1.6968,1.6967,1.693,1.6931,1.6931,1.6968,0,0,1.6931,1.6931,0,0,0,0,0,0,0,0,1.707,1.7068,1.7041,1.7038,1.7034,1.7006,1.7027,1.7012,1.6972,1.6995,1.6968,1.6966,1.6957,1.6955,1.6952,1.6966,1.6965,1.6931,1.6932,1.6932,1.6932,0,0,0,0,0,0,0,1.7071,1.7069,1.7058,1.7041,1.7036,1.7021,1.7016,1.7024,1.6986,1.6992,1.6988,1.6984,1.6955,1.6952,1.6951,1.6964,1.6931,1.6932,1.6932,1.6932,1.7009,1.7011,0,0,0,0,0,0,1.7078,1.7071,1.7059,1.7056,1.7048,1.7022,1.7017,1.7017,1.6986,1.698,1.6986,1.6982,1.6953,1.6951,1.6949,1.6993,1.6932,1.6932,1.6932,1.7008,1.701,1.7012,0,0,0,0,0,0,1.7078,1.7077,1.706,1.7062,1.7059,1.7024,1.7024,1.7017,1.7014,1.6981,1.6974,1.699,1.6951,1.6949,1.6964,1.699,1.6932,1.6932,1.7005,1.7008,1.7011,1.7079,0,0,0,0,0,0,1.7079,1.7078,1.7091,1.7063,1.7059,1.7076,1.7026,1.7018,1.7015,1.7009,1.6983,1.6977,1.695,1.6965,1.6965,1.699,1.6932,1.7003,1.7007,1.701,1.7074,1.7084,1.7092,0,0,0,0,0,1.708,1.7111,1.7092,1.7091,1.7075,1.7077,1.7075,1.7043,1.7017,1.7031,1.701,1.6978,1.6987,1.6967,1.6966,1.6992,1.7001,1.7006,1.701,1.707,1.7082,1.7092,0,0,0,0,0,0,1.7143,1.7107,1.7085,1.7109,1.7097,1.7067,1.7083,1.7056,1.7051,1.7045,1.7005,1.7,1.7021,1.7007,1.6985,1.7027,1.6989,1.6994,1.7035,1.7046,1.7055,1.7058,1.6932,0,0,0,0,0,1.7159,1.7164,1.7132,1.7156,1.7151,1.7118,1.7118,1.7094,1.708,1.7075,1.7054,1.7042,1.7042,1.7043,1.7041,1.7072,1.7066,1.7089,1.7098,1.7106,1.711,1.7127,1.7138,1.7026,1.7026,1.7026,0,0,1.7194,1.7175,1.718,1.7168,1.7156,1.7163,1.7114,1.7122,1.7127,1.7076,1.709,1.7075,1.7058,1.7082,1.7091,1.7071,1.714,1.7111,1.7117,1.7118,1.7133,1.7144,1.7153,1.7029,1.7029,1.7028,0,0,1.726,1.7245,1.7265,1.7254,1.7236,1.7215,1.722,1.7194,1.7182,1.7196,1.7158,1.7163,1.7164,1.7154,1.7149,1.7214,1.7186,1.7215,1.7262,1.7279,1.7288,1.7295,1.732,1.733,1.7219,1.722,1.722,0,1.7305,1.7313,1.7278,1.7289,1.7286,1.724,1.726,1.7251,1.7234,1.7233,1.7211,1.7213,1.7198,1.722,1.7237,1.7233,1.7239,1.7218,1.7289,1.7297,1.7303,1.7327,1.7336,1.7223,1.7223,1.7223,1.7222,0,1.737,1.7376,1.7394,1.738,1.7378,1.7394,1.7362,1.7364,1.7341,1.7322,1.7338,1.7319,1.7314,1.7317,1.7293,1.7336,1.7325,1.7297,1.7258,1.7318,1.734,1.7348,1.7229,1.7228,1.7226,1.7225,0,0,1.7474,1.7442,1.7449,1.7443,1.7421,1.7426,1.744,1.7435,1.7439,1.7429,1.7441,1.7444,1.7418,1.7413,1.7389,1.7404,1.7459,1.7374,1.7373,1.7392,1.7507,1.753,1.754,1.744,1.7441,1.7442,1.7509,0,1.7537,1.756,1.7529,1.7559,1.7565,1.7523,1.7535,1.7524,1.7507,1.751,1.7491,1.7494,1.7459,1.7456,1.7469,1.745,1.7482,1.7444,1.7451,1.7452,1.7458,1.7551,1.7574,1.7638,1.7517,1.7518,1.7519,0,1.7613,1.7609,1.7639,1.7617,1.7619,1.7631,1.7625,1.7628,1.7615,1.7602,1.7597,1.7568,1.7582,1.7544,1.7562,1.7538,1.7539,1.753,1.7531,1.7532,1.749,1.7556,1.7658,1.7668,1.7532,1.7531,1.753,0,1.7689,1.769,1.7709,1.7705,1.7679,1.7689,1.7679,1.7664,1.7664,1.7659,1.7659,1.7655,1.7654,1.7652,1.7624,1.7598,1.7647,1.7606,1.7637,1.7638,1.765,1.765,1.7755,1.7648,1.7648,1.7648,1.7648,0,1.7763,1.7784,1.7743,1.7755,1.7777,1.7742,1.7766,1.7751,1.7739,1.7747,1.771,1.7719,1.768,1.7686,1.7663,1.7684,1.7683,1.7673,1.7667,1.7677,1.7679,1.7678,1.7674,1.765,1.765,1.7649,1.7649,0,1.7852,1.7825,1.7843,1.7818,1.7813,1.7831,1.7809,1.782,1.7801,1.7812,1.7813,1.7783,1.7788,1.7759,1.7758,1.7743,1.7775,1.776,1.778,1.7776,1.781,1.7808,1.792,1.7933,1.7816,1.7818,1.7819,0,1.7902,1.7917,1.7894,1.7898,1.789,1.7896,1.7896,1.7863,1.7864,1.7852,1.7864,1.7866,1.7865,1.7875,1.7853,1.7853,1.7839,1.7878,1.7839,1.7849,1.7842,1.7842,1.7844,1.7887,1.7888,1.789,1.7891,0,1.7994,1.798,1.7982,1.798,1.7981,1.7978,1.7971,1.7976,1.794,1.7944,1.7949,1.7949,1.7949,1.7951,1.7947,1.7937,1.7909,1.7903,1.7911,1.7922,1.7933,1.793,1.7804,1.7901,1.79,1.7899,1.7899,1.7898,1.8066,1.8078,1.8065,1.8069,1.8061,1.8056,1.8066,1.8048,1.8052,1.8049,1.8029,1.8038,1.8026,1.8017,1.801,1.8017,1.7999,1.8009,1.8012,1.8016,1.8023,1.7931,1.8016,1.8016,1.8015,1.8015,1.8015,0,1.8158,1.8148,1.8151,1.8145,1.8148,1.8121,1.8113,1.8118,1.8126,1.8117,1.8118,1.8125,1.8128,1.8107,1.8107,1.8117,1.8104,1.8118,1.8118,1.8117,1.8038,1.8032,1.8129,1.8129,1.8129,1.8129,1.8129,1.8129,1.8206,1.8227,1.8212,1.8228,1.8217,1.8226,1.8225,1.8221,1.8214,1.8223,1.8225,1.8212,1.8199,1.8198,1.82,1.8194,1.8197,1.8216,1.8206,1.8133,1.8122,1.8111,1.8106,1.8216,1.8216,1.8284,1.8284,1.8285]},{"header":{"parameterUnit":"m.s-1","parameterCategory":1,"la1":30.2991,"la2":30.254,"lo1":-89.0895,"lo2":-89.0444,"dy":0.0017,"dx":0.0017,"nx":28,"ny":28,"refTime":"2025-07-22T09:00:00:Z","depth":0,"parameterNumber":3,"parameterNumberName":"V-component_of_WINDS"},"data":[0,0,0,0,0,0,0,0,0,0,0,0,0,0,0,0,0,0,0,0,0,0,0,0,0,0,0,0,0,0,0,0,0,0,0,0,0,0,0,0,0,0,0,0,0,0,0,0,0,0,0,0,0,0,0,0,0,0,-3.9145,-3.9145,0,-3.9123,-3.9123,-3.9123,-3.9112,-3.9112,-3.9113,-3.9113,-3.9083,-3.9082,-3.9082,0,0,0,0,0,0,0,0,0,0,0,0,0,-3.9174,-3.9174,-3.9145,-3.9145,-3.9145,-3.9124,-3.9123,-3.9123,-3.9112,-3.9112,-3.9113,-3.9113,-3.9083,-3.9083,-3.9082,0,0,0,0,0,0,0,0,0,0,0,0,0,-3.9158,-3.9174,-3.9145,-3.9137,-3.9136,-3.9124,-3.9123,-3.9123,-3.9112,-3.9112,-3.9113,-3.9113,-3.9084,-3.9083,-3.9081,-3.9073,0,0,-3.9078,-3.9077,0,0,0,0,0,0,0,0,-3.9159,-3.9157,-3.9139,-3.9138,-3.9137,-3.9121,-3.9123,-3.9106,-3.9112,-3.9121,-3.9113,-3.9113,-3.9095,-3.9093,-3.9089,-3.9072,-3.907,-3.9078,-3.9077,-3.9076,-3.9076,0,0,0,0,0,0,0,-3.916,-3.9158,-3.9136,-3.9138,-3.9137,-3.9133,-3.9131,-3.9119,-3.9108,-3.9121,-3.912,-3.9118,-3.9095,-3.909,-3.9088,-3.907,-3.9078,-3.9077,-3.9076,-3.9075,-3.9049,-3.9049,0,0,0,0,0,0,-3.9163,-3.9159,-3.9137,-3.9136,-3.9148,-3.9133,-3.913,-3.9126,-3.9108,-3.9106,-3.9118,-3.9117,-3.9092,-3.9089,-3.9087,-3.9078,-3.9076,-3.9075,-3.9075,-3.9049,-3.9049,-3.9049,0,0,0,0,0,0,-3.9164,-3.9161,-3.9138,-3.9147,-3.9144,-3.9132,-3.9127,-3.9125,-3.9121,-3.9106,-3.9104,-3.9115,-3.9092,-3.9089,-3.9078,-3.9077,-3.9075,-3.9074,-3.9049,-3.9049,-3.9049,-3.906,0,0,0,0,0,0,-3.9165,-3.9162,-3.9159,-3.9147,-3.9144,-3.9131,-3.9127,-3.9125,-3.9119,-3.9119,-3.9103,-3.91,-3.9092,-3.908,-3.9077,-3.9075,-3.9073,-3.9049,-3.9049,-3.9049,-3.906,-3.906,-3.9061,0,0,0,0,0,-3.9166,-3.9161,-3.9159,-3.9156,-3.914,-3.9131,-3.9128,-3.912,-3.9119,-3.9116,-3.9108,-3.9101,-3.9078,-3.9079,-3.9075,-3.9074,-3.9049,-3.9049,-3.9049,-3.9059,-3.906,-3.9061,0,0,0,0,0,0,-3.9169,-3.9159,-3.9157,-3.9148,-3.9141,-3.9129,-3.9124,-3.9121,-3.9112,-3.9111,-3.9099,-3.9096,-3.9087,-3.9079,-3.908,-3.9066,-3.9063,-3.9062,-3.9072,-3.9073,-3.9073,-3.9076,-3.9072,0,0,0,0,0,-3.9169,-3.9164,-3.9155,-3.9148,-3.9145,-3.9136,-3.9131,-3.9126,-3.9117,-3.9113,-3.9103,-3.9093,-3.9084,-3.9078,-3.9068,-3.9059,-3.9056,-3.9056,-3.9057,-3.9057,-3.9057,-3.9054,-3.9055,-3.9049,-3.9049,-3.9049,0,0,-3.9168,-3.9162,-3.9159,-3.9148,-3.9142,-3.9136,-3.9133,-3.9125,-3.9121,-3.9111,-3.9102,-3.9095,-3.9083,-3.9074,-3.9069,-3.9067,-3.9058,-3.9058,-3.9058,-3.9057,-3.9054,-3.9055,-3.9056,-3.9049,-3.9049,-3.9049,0,0,-3.9164,-3.9159,-3.9154,-3.9149,-3.9142,-3.9136,-3.9135,-3.9125,-3.9121,-3.9112,-3.9106,-3.91,-3.9083,-3.9076,-3.907,-3.9069,-3.9063,-3.9066,-3.907,-3.9067,-3.9068,-3.9068,-3.9069,-3.907,-3.9066,-3.9066,-3.9066,0,-3.9163,-3.9156,-3.9151,-3.9147,-3.9143,-3.9137,-3.9133,-3.9127,-3.9115,-3.9113,-3.9111,-3.9094,-3.9085,-3.9076,-3.9076,-3.9071,-3.907,-3.9067,-3.9068,-3.9069,-3.9069,-3.907,-3.9071,-3.9066,-3.9066,-3.9066,-3.9066,0,-3.9157,-3.9152,-3.9149,-3.9143,-3.9138,-3.9133,-3.9127,-3.9123,-3.912,-3.9115,-3.9107,-3.9097,-3.9087,-3.9085,-3.9079,-3.9076,-3.9075,-3.9071,-3.9067,-3.907,-3.9071,-3.9072,-3.9067,-3.9067,-3.9067,-3.9066,0,0,-3.9151,-3.9146,-3.9145,-3.9143,-3.9136,-3.9132,-3.9127,-3.9121,-3.9119,-3.9111,-3.9108,-3.9097,-3.9095,-3.9088,-3.9082,-3.908,-3.9083,-3.9077,-3.9076,-3.908,-3.9081,-3.9085,-3.9085,-3.908,-3.9079,-3.9079,-3.9083,0,-3.9147,-3.9141,-3.9139,-3.9134,-3.9131,-3.9127,-3.9124,-3.9119,-3.9115,-3.9111,-3.9105,-3.9099,-3.9095,-3.9092,-3.909,-3.9083,-3.9083,-3.9083,-3.9076,-3.9076,-3.908,-3.9085,-3.9088,-3.9092,-3.9083,-3.9083,-3.9083,0,-3.9141,-3.9139,-3.9134,-3.9132,-3.913,-3.9127,-3.9123,-3.9119,-3.9114,-3.9112,-3.9107,-3.9103,-3.9098,-3.9095,-3.9089,-3.9089,-3.9087,-3.9083,-3.9083,-3.9082,-3.908,-3.9086,-3.9092,-3.9093,-3.9083,-3.9083,-3.9083,0,-3.914,-3.9135,-3.9133,-3.9131,-3.9127,-3.9126,-3.9124,-3.912,-3.9117,-3.9113,-3.9112,-3.9106,-3.9103,-3.9098,-3.9093,-3.9091,-3.9088,-3.9084,-3.9086,-3.9086,-3.9085,-3.9085,-3.9092,-3.9082,-3.9082,-3.9082,-3.9082,0,-3.9136,-3.9133,-3.9133,-3.9131,-3.913,-3.9127,-3.9125,-3.9122,-3.9119,-3.9117,-3.9113,-3.9111,-3.9103,-3.91,-3.9095,-3.9093,-3.909,-3.9088,-3.9087,-3.9089,-3.909,-3.9087,-3.9087,-3.9082,-3.9082,-3.9082,-3.9082,0,-3.9133,-3.9132,-3.9131,-3.9129,-3.9129,-3.9128,-3.9126,-3.9125,-3.9122,-3.912,-3.9119,-3.9115,-3.9111,-3.9106,-3.9099,-3.9096,-3.9095,-3.9092,-3.9098,-3.9097,-3.91,-3.91,-3.9106,-3.9108,-3.9095,-3.9096,-3.9096,0,-3.9131,-3.913,-3.913,-3.913,-3.913,-3.9129,-3.9128,-3.9126,-3.9125,-3.9122,-3.9121,-3.9119,-3.9116,-3.9111,-3.9106,-3.9103,-3.91,-3.9103,-3.9099,-3.9103,-3.9102,-3.9103,-3.9104,-3.9103,-3.9104,-3.9104,-3.9104,0,-3.9127,-3.9129,-3.9128,-3.913,-3.913,-3.913,-3.9129,-3.9129,-3.9127,-3.9126,-3.9125,-3.9123,-3.912,-3.9118,-3.9114,-3.9111,-3.9107,-3.9106,-3.9106,-3.9108,-3.9112,-3.9112,-3.9101,-3.9105,-3.9105,-3.9105,-3.9105,-3.9105,-3.9125,-3.9126,-3.9128,-3.9129,-3.913,-3.9131,-3.9131,-3.9131,-3.913,-3.9129,-3.9128,-3.9127,-3.9125,-3.9121,-3.9119,-3.9118,-3.9116,-3.9116,-3.9116,-3.9116,-3.9118,-3.9113,-3.9117,-3.9117,-3.9117,-3.9117,-3.9117,0,-3.9123,-3.9126,-3.9127,-3.9129,-3.9131,-3.9131,-3.9132,-3.9132,-3.9133,-3.9133,-3.9132,-3.9132,-3.9131,-3.9128,-3.9127,-3.9127,-3.9126,-3.9127,-3.9127,-3.9127,-3.9119,-3.912,-3.9128,-3.9128,-3.9128,-3.9128,-3.9128,-3.9128,-3.9122,-3.9125,-3.9127,-3.913,-3.9132,-3.9134,-3.9134,-3.9136,-3.9136,-3.9137,-3.9138,-3.9137,-3.9137,-3.9136,-3.9135,-3.9135,-3.9135,-3.9137,-3.9136,-3.9128,-3.9127,-3.9126,-3.9127,-3.9137,-3.9137,-3.9144,-3.9144,-3.9144]}]]